Terug naar catalogus

STARLINK-3331

ActiefCommunicatieVLEO
NORAD 50834·PAYLOAD·🇺🇸 United States

Gelanceerd Jan 6, 2022 vanaf Cape Canaveral Space Force Station

Loading…

Volgende Passages (komende 24 uur)

TLE

VersSource: CelesTrak SupGP

Epoch: Sep 15, 2026, 00:53 UTC

1 50834C 22001AH  26258.03729167 -.00035170  00000+0 -10676-2 0  2580
2 50834  53.1599  35.5358 0001232  81.9530 202.2469 15.33555998    16

Volg STARLINK-3331 in realtime met AllMySat

Download on the App Store